CZ-6A DEB, 54945

Orbit data source: Space-Track

CZ-6A DEB, 54945 is space debris in SSO originally from a launch on Fri, 11 Nov 2022 UTC launched from the Taiyaun Space Center, China (TSC). Debris objects in space refer to the collection of defunct objects orbiting the Earth. Examples of debris include non-operational satellites, rocket bodies, and fragments generated from explosions, collisions, or faulty payload assembly.

Loading next visibility...
Identifier
54945, 2022-151SJ
Orbit
SSO
Country
Flag of CNCN / PRC
Related business
Manufacturer
SAST
Mission
Spacecraft
Bus & Motor
Unknown
Mass
Unknown
Launch date (UTC)
2022-11-11 (3 years ago)
Launch vehicle
Unknown
Launch site
Taiyaun Space Center, China (TSC)
Object type
Payload
Rocket body
Debris
Shape & HBR
Unknown shape, 0.1 m
Radar Cross Section
Small (<0.1 m²)

Expand to show TLE details & history
Last TLE update: 1 day ago

TLE from 1 day ago
0 CZ-6A DEB
1 54945U 22151SJ  25352.26671485  .00011775  00000-0  23944-2 0  9999
2 54945  99.1248 102.5887 0074622 184.1210 175.9381 14.59499849 91681
Epoch: 2025-12-18T06:24Z
TLE epoch observation values (Epoch: 2025-12-18T06:24:04.163Z)
Latitude
-0.00005°
Longitude
-80.55332°
Altitude
750.404 km
Speed
7.452 km/s
True Right ascension
06h 50m 21s
True Declination
0° 00' 00"
Sunlit
Object was in full shadow at epoch
Visualization orbit readout
Latitude
Unknown
Longitude
Unknown
Altitude
Unknown
Speed
Unknown
Apparent Right ascension
Unknown
Apparent Declination
Unknown
Sunlit
N/A
Visualization observer readout
Local Sidereal Time
06:26:53
Azimuth
Unknown
Elevation
Unknown
Doppler factor
Unknown
Orbital elements
Apogee altitude
744.674 km
Perigee altitude
639.158 km
Semi-major axis
7,070.053 km
Eccentricity
0.00746
Inclination
99.1248°
RAAN
102.5887°
Arg. of periapsis
184.121°
True anomaly
175.99811°
Mean anomaly
175.9381°
Eccentric anomaly
175.96816°
Mean motion
3.65098 °/min
Orbital period
98.6 mins
BSTAR
0.0023944
Loading maneuver chart data...
Computing Atmospheric mass density...
Loading historical data...
Loading historical data...
Loading historical data...
Loading historical data...
Loading historical data...
Loading historical data...
Loading historical data...

Documentation

Showing up to 5 results
|